Погода в Барио

Малайзия     3°45′00″N   115°27′00″E
темп.,
°C
ветер,
м/с
пор.,
м/с
влажн.,
%
обл.,
%
осадки,
мм/ч
давл.,
гПа
погр.,
м
26 февраля, пт
пт2623:00+16зсз11982 0.0 101023
02:00+15з01998 0.0 100923
05:00+15сз009757 0.0 100823
08:00+18вюв019142 0.0 1010137
11:00+27ююв125290 0.1 10091298
14:00+25з226990 0.8 1006847
17:00+19зсз1197100 6.0 100629
20:00+18з1198100 10.3 100923
27 февраля, сб
сб2723:00+17с009977 2.9 101123
02:00+16всв019966 3.7 100923
05:00+16в019947 0.2 100923
08:00+18вюв019653 0.2 1011124
11:00+24ююв017965 2.4 1010715
14:00+21ююв119682 10.4 1008111
17:00+19с1197100 3.4 100726
20:00+18всв1198100 9.6 101028
28 февраля, вс
вс2823:00+17вюв119994 4.3 101223
02:00+16всв019967 4.3 101124
05:00+16в119912 0.0 101023
08:00+18вюв119628 0.0 1012123
11:00+27вюв125747 0.1 10121163
14:00+24ююв128660 4.1 1008732
17:00+22св019191 5.8 1007253
20:00+18в019690 9.4 101023
1 марта, пн
пн123:00+17в11994 0.0 101228
02:00+16в119910 0.0 101128
05:00+16вюв119933 0.0 101131
08:00+18вюв119867 0.0 1013122
11:00+27вюв1156100 0.0 10121002
14:00+24зюз1179100 1.4 10091073
17:00+22сз0191100 3.2 1009307
20:00+17з1197100 6.8 101223
2 марта, вт
вт223:00+16с019770 0.5 101423
02:00+16с009885 0.5 101223
05:00+15сз0098100 0.0 101223
08:00+18з0097100 0.0 101346
11:00+27юз1155100 0.0 10131210
14:00+23зсз128894 4.3 1010621
17:00+21сз1195100 5.7 1009221
20:00+17сз119591 10.6 101223